Wind_Speed
54 55 54 54 54 54 55 54 55 56 57 57 58 58 58 59 60 60 60 60 60 59 58 57 56 55 54 53 51 50 48 47 47 46 45 45 44 44 45 45 46 47 47 47 47 47 47 47 48 49 50 51 53 54 54 55 55 54 52 49 47 47 47 48 49 51 53 53 53 52 51 51 51 51 51 51 51 50 50 50 50 51 51 52 53 54
56 56 56 56 56 56 56 56 56 56 58 58 59 59 59 60 61 61 61 61 61 60 59 58 56 55 54 53 52 50 49 47 46 46 46 45 44 44 44 44 44 44 45 46 46 47 47 47 47 48 49 50 51 52 53 53 54 54 53 52 50 48 46 46 47 49 51 53 53 52 52 52 51 52 52 52 51 50 50 49 50 50 50 51 52 53
57 57 57 57 57 57 58 57 58 58 59 59 60 60 60 61 62 62 62 62 62 62 61 60 59 57 55 54 52 51 49 47 46 46 46 45 45 44 44 44 43 43 44 44 45 46 47 47 48 48 49 49 50 50 51 51 52 53 53 53 53 51 48 47 47 48 50 52 53 53 52 52 52 53 53 52 52 51 50 50 50 50 50 51 51 52
59 59 59 59 58 58 58 58 59 59 60 60 60 61 61 62 62 63 63 63 63 64 63 62 61 59 57 55 54 52 50 47 46 46 45 45 45 44 44 44 44 43 43 43 43 44 46 47 48 49 50 50 50 50 49 50 50 51 52 54 54 54 52 49 47 48 50 52 53 53 53 53 54 54 54 54 53 52 51 51 50 50 50 50 50 51
61 61 60 60 60 59 59 59 59 59 60 60 61 61 62 62 62 62 63 63 64 65 64 64 63 61 60 58 55 53 51 49 47 46 46 46 46 45 45 45 45 44 43 43 42 43 44 46 48 49 50 51 51 50 50 49 49 50 52 53 54 55 54 50 48 48 51 52 53 54 54 54 54 55 55 54 53 53 52 50 50 49 49 49 49 49
63 62 62 62 61 61 60 59 59 59 60 61 62 62 62 62 62 62 63 64 64 65 65 64 64 63 62 60 58 55 53 51 49 48 48 48 47 47 46 46 46 45 45 44 43 43 44 45 46 48 50 51 51 51 51 50 50 50 51 52 54 54 54 51 47 46 48 51 53 54 54 54 55 55 55 55 54 52 51 49 48 48 48 48 47 47
65 64 64 63 63 62 61 61 61 60 61 62 63 63 63 63 63 63 64 64 64 65 65 65 64 63 63 61 59 57 55 53 52 51 51 50 49 48 48 47 47 47 46 45 45 44 44 44 45 47 49 50 51 51 51 51 51 51 51 52 52 53 53 50 47 45 45 48 50 52 53 54 54 55 56 55 54 53 51 49 48 48 47 47 46 46
66 66 65 65 64 64 63 63 62 61 61 62 63 65 66 66 65 65 65 64 64 65 66 66 65 64 63 61 60 58 56 54 52 51 51 49 48 47 47 47 47 47 46 45 44 44 43 43 44 45 47 48 50 50 51 51 51 51 51 52 52 51 51 49 47 45 44 45 47 49 50 52 53 55 55 55 55 54 52 51 50 49 48 47 46 46
66 67 67 66 65 64 64 64 64 63 62 62 63 64 66 67 67 67 67 66 65 65 65 65 65 65 64 63 61 59 57 54 52 51 50 49 47 46 46 46 46 46 46 45 44 43 42 41 42 43 44 46 47 48 49 49 50 50 51 51 51 50 49 48 47 46 45 45 45 45 46 49 52 54 55 55 55 55 54 53 51 50 49 48 47 46
67 66 66 66 65 64 63 64 64 64 63 62 62 63 63 64 66 67 68 68 67 65 63 64 65 66 67 66 64 61 59 56 55 53 51 49 47 45 44 44 44 44 44 44 43 42 41 41 40 40 41 43 44 45 47 47 48 49 49 49 50 49 49 48 47 46 46 45 45 44 44 46 50 53 56 56 55 55 55 55 53 52 51 50 49 48
67 66 65 65 64 64 63 63 63 63 63 63 63 63 62 62 62 64 66 68 67 66 64 64 65 66 66 67 66 64 61 59 57 55 52 50 47 45 43 42 42 42 43 43 44 43 42 41 40 40 40 40 41 43 44 45 46 46 47 47 47 47 47 47 47 46 46 45 45 44 43 44 47 52 55 56 56 56 56 56 55 53 52 52 51 51
66 66 65 65 64 63 63 62 62 62 62 62 63 63 63 63 61 61 61 63 65 66 65 65 65 65 65 65 65 64 61 59 56 54 52 50 47 44 42 41 40 40 41 42 43 43 43 42 41 40 39 39 40 41 42 43 44 45 45 45 45 45 46 46 47 46 46 46 45 44 43 43 46 50 54 56 56 56 56 56 55 54 53 53 53 54
64 65 65 64 64 63 62 62 62 62 61 61 61 62 63 63 61 60 59 60 61 62 63 63 64 64 64 63 62 60 58 56 55 54 52 49 47 44 42 40 39 39 39 40 41 41 41 40 40 39 39 38 38 39 40 41 43 43 44 44 44 45 45 46 46 47 47 46 46 45 44 44 46 49 53 55 56 55 54 54 53 53 53 53 54 55
62 63 63 63 63 63 62 62 62 61 61 61 60 60 60 60 60 59 58 58 58 59 59 59 60 61 62 61 59 56 54 52 51 51 49 48 46 44 41 40 40 39 39 39 39 38 38 37 37 37 37 37 37 37 38 40 41 43 44 44 45 45 45 46 47 47 47 47 46 45 45 45 47 49 52 55 55 54 52 52 52 52 52 53 54 54
59 60 60 60 61 61 62 61 61 60 60 59 58 58 58 57 57 56 55 54 55 55 55 55 56 58 59 58 56 53 51 49 48 47 47 46 45 43 42 41 40 40 39 38 37 36 35 34 35 35 35 35 35 35 37 38 40 42 43 43 44 45 46 46 47 47 48 48 47 46 46 46 47 50 53 54 55 53 51 51 52 51 51 52 53 53
56 56 55 56 57 58 58 58 57 57 56 55 55 54 53 52 52 52 51 50 51 51 51 51 52 54 55 56 54 51 48 46 46 45 45 45 44 43 42 40 41 41 40 38 36 34 33 32 33 33 33 33 34 34 36 38 39 41 41 42 44 45 46 46 47 47 47 48 47 47 46 46 47 50 52 53 53 52 51 52 52 51 50 50 51 52
51 51 51 51 52 52 53 52 51 51 50 50 50 49 48 48 48 48 48 47 47 47 47 48 49 50 51 52 51 49 46 44 43 43 43 43 43 43 42 40 40 41 40 37 34 32 31 31 32 32 32 32 33 34 36 37 39 40 41 42 43 44 45 45 46 46 46 46 46 46 45 45 46 48 50 51 52 51 50 51 51 50 49 48 49 50
47 47 46 46 46 46 46 46 45 45 45 45 45 45 45 45 45 45 45 45 45 45 46 46 47 47 48 48 47 46 44 42 42 43 43 44 44 44 42 41 41 40 38 35 32 31 30 30 31 31 32 33 33 35 36 37 39 40 41 41 42 42 43 43 43 43 43 44 44 43 43 43 43 45 47 49 49 49 48 48 47 46 46 45 45 46
44 43 42 42 42 42 42 41 41 41 41 42 42 43 43 43 43 43 44 44 45 45 46 46 46 46 46 46 45 44 43 42 43 44 44 44 44 43 41 41 41 40 37 34 31 30 29 30 31 32 33 33 34 35 36 37 38 39 40 40 41 41 41 41 41 41 41 41 41 40 40 40 41 43 45 46 46 45 44 43 43 42 42 42 42 41
42 41 40 39 39 39 39 39 39 38 39 39 40 41 42 42 43 43 44 43 44 44 45 46 46 46 46 45 44 42 41 42 44 45 44 44 43 42 40 39 39 38 37 34 31 29 29 30 31 32 33 34 35 36 36 37 38 39 40 40 40 39 39 39 39 39 39 39 38 38 37 37 39 41 43 44 43 42 40 39 39 38 39 39 39 38
40 40 39 38 37 38 38 38 37 36 37 37 39 40 41 42 43 44 44 43 43 43 44 45 46 47 46 46 44 42 40 41 43 45 45 44 43 42 39 38 38 37 36 33 30 29 29 30 31 32 33 34 35 36 36 37 38 38 39 39 39 39 38 38 38 38 38 37 36 36 36 36 37 38 40 41 40 38 37 37 37 37 37 37 37 37
40 39 38 36 35 36 36 36 36 35 36 37 38 40 41 43 44 45 45 45 45 45 46 47 47 47 47 46 45 43 41 42 43 44 45 45 44 41 39 38 38 37 35 32 29 28 29 30 31 32 33 34 35 35 36 36 37 38 38 39 39 38 38 38 38 37 36 34 34 34 34 34 34 35 36 36 36 36 36 36 36 36 36 36 36 37
38 38 36 35 34 34 34 34 35 35 36 37 39 40 42 43 45 46 46 46 46 46 47 47 47 47 47 47 45 44 42 42 42 43 44 45 44 41 38 38 38 37 34 31 29 29 29 30 31 32 33 34 35 35 35 35 36 36 37 38 38 38 38 38 37 36 33 32 31 31 30 30 30 30 31 33 34 34 34 34 34 34 33 33 34 35
36 36 35 33 33 33 33 34 35 36 37 38 39 41 42 43 44 45 45 45 45 45 46 46 47 47 47 46 45 44 42 41 41 42 43 44 43 40 38 38 37 36 34 31 30 29 30 30 31 32 34 34 35 35 35 34 34 35 36 37 37 37 37 37 36 34 32 30 28 27 26 25 25 26 28 29 31 32 32 32 31 31 31 31 32 33
35 34 33 33 33 33 34 35 36 37 38 39 40 41 42 43 43 44 44 44 44 44 45 45 46 46 46 45 44 43 42 41 40 41 42 43 43 41 38 37 37 36 34 32 30 30 30 30 31 32 33 34 35 35 35 34 34 34 34 35 35 35 36 35 34 32 31 29 28 26 24 22 22 23 24 26 27 28 29 29 29 30 30 31 32 34
33 33 33 34 34 34 35 35 36 36 37 38 39 40 41 42 43 43 43 43 43 43 44 44 44 45 45 44 43 42 41 40 39 40 41 43 43 41 38 37 37 37 36 33 32 31 30 30 30 31 32 34 35 35 34 33 33 32 32 33 33 33 33 33 32 31 29 28 27 26 25 23 22 22 23 24 25 25 26 27 28 29 31 33 35 37
32 32 32 33 34 34 34 35 35 35 35 36 37 38 40 41 43 43 43 43 43 43 43 43 44 45 44 43 42 41 40 40 39 40 41 42 43 42 39 37 37 38 37 35 33 32 31 30 30 31 32 33 34 34 34 33 32 31 31 31 31 31 31 30 29 29 28 27 27 27 26 25 24 23 23 23 23 24 24 25 27 29 32 35 38 40
31 32 32 33 33 33 33 33 33 33 34 35 36 37 39 41 42 43 44 43 43 42 43 43 44 44 43 43 42 41 40 39 39 39 40 42 43 43 40 39 38 38 38 36 35 33 32 31 31 31 31 32 33 33 33 32 31 30 30 30 30 29 28 28 27 27 27 27 27 27 26 26 25 25 25 24 24 23 24 25 27 30 33 36 39 41
31 32 33 33 33 33 33 32 33 33 34 35 36 37 38 40 42 43 43 42 41 41 41 41 41 42 42 42 42 41 40 39 39 39 40 42 43 43 41 40 39 38 38 37 36 34 33 32 31 30 30 30 31 31 31 31 30 30 30 30 29 28 27 26 26 25 26 26 26 27 27 27 26 26 26 25 24 24 25 26 28 31 34 36 38 39
31 32 32 33 32 32 33 33 33 33 34 35 36 37 38 40 41 42 41 40 39 39 39 39 40 40 41 41 41 41 40 39 38 39 40 41 42 42 41 41 40 38 37 37 36 35 33 32 31 30 29 28 28 29 29 30 30 30 30 30 29 27 27 26 25 25 25 26 26 27 27 27 27 27 26 26 25 25 26 27 29 32 34 35 37 38
32 32 33 33 33 33 33 33 34 34 35 35 36 37 38 39 40 40 39 38 37 37 37 38 38 38 39 40 41 42 41 39 38 38 40 41 41 42 41 41 40 38 37 36 36 35 34 32 30 29 28 27 27 27 28 29 30 31 31 30 28 27 27 26 25 25 25 26 26 27 26 27 27 27 27 26 25 26 27 28 30 32 33 35 35 36
33 33 34 33 33 33 34 34 34 34 35 35 36 37 37 38 38 38 38 36 35 35 35 36 36 37 37 38 40 41 41 39 38 38 39 40 40 41 40 40 40 38 36 35 35 34 34 32 30 29 27 27 27 28 28 30 31 31 30 29 28 27 27 26 26 26 26 26 26 26 26 27 27 27 27 26 26 27 28 29 31 32 33 34 34 35
33 33 33 33 33 34 34 34 34 34 35 35 36 36 37 37 37 37 36 35 34 34 34 34 35 36 36 37 38 39 39 38 37 37 38 39 39 40 40 39 39 38 37 35 34 33 33 32 31 29 28 28 28 29 30 31 31 31 29 28 27 27 27 26 26 26 27 27 27 27 27 27 28 28 27 27 27 28 29 30 31 32 33 33 33 34
33 33 33 33 33 33 33 34 34 34 34 35 35 36 36 36 36 36 35 34 33 33 33 33 34 35 35 36 37 38 38 36 36 36 36 37 38 38 39 39 38 37 37 36 34 34 33 32 31 30 30 30 30 31 32 32 32 31 28 26 26 26 26 27 27 27 28 28 28 28 28 29 29 29 29 28 28 29 30 31 32 32 32 32 32 32
32 32 33 33 33 33 33 33 34 34 34 35 35 35 35 36 35 35 34 34 33 32 32 32 33 34 35 36 36 37 36 34 34 34 35 35 36 37 38 37 37 36 36 36 35 34 34 32 32 31 31 31 32 32 33 33 32 30 27 26 25 26 27 27 28 29 29 29 29 29 30 30 30 30 30 29 29 30 31 31 31 31 31 30 30 30
32 32 32 33 33 34 34 34 34 34 35 35 35 35 36 35 35 35 34 33 33 32 32 32 32 32 33 34 35 35 34 33 33 33 33 34 35 35 36 36 36 35 35 35 34 34 34 33 32 32 31 32 33 33 34 34 33 30 28 26 26 27 28 29 29 29 29 29 29 30 30 30 30 30 29 29 29 30 30 30 29 29 28 28 28 28
32 32 32 33 33 34 34 34 34 35 35 36 36 36 36 36 36 35 34 34 33 33 32 32 32 32 32 32 33 33 33 33 32 32 32 32 33 34 34 34 34 34 34 34 33 33 33 33 33 32 32 33 33 33 33 32 31 30 28 28 29 29 30 30 30 30 30 30 29 29 29 29 29 28 28 28 28 29 28 28 27 27 27 27 27 27
31 32 32 33 33 34 34 34 35 35 36 36 37 37 37 37 36 36 35 34 34 33 33 33 32 32 31 31 32 32 32 31 31 30 30 30 31 32 32 32 32 33 33 32 32 32 33 33 34 34 34 34 34 33 31 30 28 28 28 29 30 31 31 31 31 31 30 30 30 29 29 28 28 28 28 28 28 27 27 27 26 26 26 26 27 27
31 32 32 33 33 34 35 35 35 36 36 37 38 38 38 38 37 36 35 35 34 34 34 33 33 32 31 31 30 30 30 29 29 28 28 28 29 29 30 30 30 30 31 31 32 32 33 34 34 35 35 34 32 31 30 28 27 27 28 29 30 31 31 31 31 31 30 30 29 29 28 28 27 27 27 27 26 26 26 25 25 26 26 26 27 27
32 32 33 33 34 34 35 36 36 37 37 38 38 38 38 38 38 37 36 35 35 34 34 34 33 32 31 30 29 28 28 27 26 26 26 26 26 27 28 28 29 29 30 30 31 32 33 33 34 34 33 32 30 29 27 26 26 27 27 28 29 30 30 31 30 30 29 28 28 27 27 26 26 26 25 25 24 24 24 24 24 25 25 25 26 26
32 33 33 33 34 35 35 36 37 37 38 38 39 39 39 39 38 37 36 35 34 34 34 33 32 31 30 29 27 26 25 25 25 25 25 25 25 25 26 27 27 28 29 30 31 31 32 33 33 32 32 31 29 28 27 26 26 27 27 26 26 27 28 28 27 27 26 26 25 25 25 24 24 24 24 23 23 23 23 23 23 24 24 24 23 23
33 33 34 34 35 35 36 36 37 38 38 39 40 40 40 40 39 38 37 36 34 34 33 32 31 29 27 26 25 24 24 24 24 24 24 24 24 24 25 25 26 27 28 29 30 30 31 31 31 30 30 29 27 26 26 26 26 26 25 25 24 24 24 24 24 24 24 23 23 23 23 23 23 23 23 23 23 23 23 24 23 23 22 22 21 20
33 33 34 35 36 36 37 38 38 39 40 40 41 41 40 39 39 38 37 36 34 33 32 30 29 26 23 22 22 22 22 22 23 23 24 24 24 24 25 25 25 26 27 27 28 28 28 28 28 28 27 26 25 24 24 25 25 24 23 23 22 22 21 21 22 22 22 22 22 22 22 22 22 22 22 22 23 23 23 23 22 21 21 20 19 18
33 34 35 36 36 37 38 39 40 40 41 42 41 40 39 38 38 37 35 34 32 31 29 28 26 23 20 18 19 21 21 21 22 22 23 23 24 24 24 24 25 25 25 24 25 25 25 25 25 24 23 23 22 22 22 22 22 22 22 22 21 21 20 20 20 20 21 21 21 21 21 21 21 21 22 22 22 21 21 20 19 19 18 18 17 17
34 35 36 36 37 38 39 40 41 42 42 42 41 40 38 37 36 35 33 31 29 28 26 25 22 19 19 19 20 21 21 21 21 22 22 23 23 23 23 23 23 23 23 22 21 21 22 22 21 21 20 20 20 21 21 20 20 21 21 21 21 21 20 19 19 19 19 20 20 20 20 20 21 21 20 20 19 19 18 17 17 17 17 17 17 18
35 36 37 38 39 40 41 41 42 42 42 41 40 38 36 35 34 32 30 28 25 24 23 22 20 19 21 21 21 22 23 24 23 22 22 22 22 22 21 20 20 19 19 19 19 19 19 19 19 18 18 19 19 20 20 20 20 20 20 20 21 21 21 20 20 19 19 19 19 19 19 19 19 18 18 17 17 16 15 15 16 16 17 18 19 20
36 38 39 40 41 42 42 42 43 42 42 40 38 36 34 32 31 29 27 24 22 21 20 20 20 21 22 22 22 22 23 24 24 23 21 20 20 20 18 17 16 15 15 15 16 17 19 19 19 19 19 18 18 18 19 19 19 19 19 19 19 19 20 20 20 20 19 19 19 18 18 17 17 16 15 15 15 15 15 16 16 18 19 20 21 21
38 39 40 42 42 43 43 43 43 42 40 38 35 33 31 29 27 25 23 21 20 19 19 20 21 22 21 21 21 22 22 23 23 22 19 17 16 15 14 13 12 12 12 13 14 16 18 19 20 20 19 17 16 16 16 17 18 18 18 17 17 18 18 18 18 18 18 18 17 17 16 15 15 14 14 14 15 15 16 17 18 19 20 21 22 22
39 41 42 43 44 44 44 43 42 40 37 35 31 28 26 25 23 21 20 19 18 18 19 20 20 19 19 19 20 20 20 21 20 18 15 13 12 12 12 12 12 12 12 13 14 16 17 17 18 18 18 17 16 15 15 16 17 17 17 17 17 17 17 17 17 16 16 15 15 14 14 13 14 14 14 15 16 17 18 19 20 21 21 22 22 22
40 42 43 43 44 43 42 41 39 37 34 31 27 24 21 20 19 18 18 17 18 18 18 17 16 16 16 16 17 17 17 16 15 13 12 11 11 11 12 13 13 13 13 13 13 14 14 14 14 14 14 14 15 16 16 17 17 17 17 17 17 17 17 16 15 14 14 13 13 13 13 13 14 14 15 17 18 19 20 20 21 21 21 22 22 21
42 43 43 43 42 41 40 38 36 33 30 26 23 20 18 17 17 17 17 17 17 16 14 13 13 13 13 13 13 13 13 12 11 11 11 11 11 12 13 13 13 13 12 12 11 11 11 10 11 11 11 12 13 14 16 17 17 17 16 16 15 15 15 14 14 13 12 12 13 13 14 14 15 16 17 18 19 20 20 20 20 21 21 21 20 20
Wind_Direction
288 288 288 288 286 285 284 284 284 284 284 284 284 284 284 285 285 285 285 286 285 285 285 285 286 286 286 286 285 284 284 283 282 280 279 277 275 273 271 269 268 266 265 264 263 263 262 262 262 262 262 263 264 264 265 265 265 264 264 262 258 254 251 248 246 245 245 245 245 245 245 247 248 249 248 248 248 249 249 250 250 249 248 248 247 246
288 288 288 288 287 286 285 284 283 283 282 282 281 281 281 281 282 283 283 283 284 284 284 284 284 285 285 285 284 284 283 282 281 281 279 278 277 275 273 271 269 267 265 264 262 261 261 261 261 261 261 261 262 263 264 264 264 264 263 262 261 258 255 250 246 244 243 244 244 244 245 245 246 247 248 248 249 249 249 250 250 249 248 247 246 245
288 288 288 288 287 287 285 285 284 283 283 282 281 280 280 279 279 280 281 282 282 283 283 284 284 284 283 283 283 282 281 280 280 279 279 278 277 276 274 272 270 268 266 263 262 261 260 260 260 260 260 261 261 262 263 263 263 263 262 262 261 260 258 252 247 243 243 243 244 244 244 245 245 246 247 248 249 250 250 250 249 249 248 247 245 244
287 286 286 287 286 285 285 285 284 284 283 282 281 280 279 278 278 278 279 280 281 281 282 283 283 283 282 282 281 281 280 279 278 277 276 275 275 274 273 272 271 269 267 265 263 261 261 261 261 261 261 261 262 262 262 262 262 261 261 261 261 261 259 254 248 243 241 242 243 243 244 244 245 246 247 247 249 250 250 250 249 248 247 246 245 243
285 285 285 285 285 284 283 283 283 283 282 281 280 279 279 278 278 278 278 278 279 280 280 281 281 281 281 281 281 281 280 278 276 275 274 273 272 272 272 271 271 270 268 267 265 263 262 262 262 262 262 263 263 263 262 262 261 260 260 260 261 262 261 257 250 243 239 239 240 241 242 243 244 245 246 247 248 249 250 250 249 248 247 246 245 243
285 285 285 284 284 283 282 282 281 281 280 279 278 277 277 277 277 277 277 276 277 277 278 279 280 281 281 282 282 282 281 279 277 275 273 272 271 270 270 270 270 270 269 268 267 266 264 263 263 263 264 264 264 264 263 262 261 260 260 261 262 264 265 263 257 248 241 238 238 239 240 241 243 244 246 246 248 249 250 250 250 249 247 246 245 243
285 285 285 284 284 283 282 281 280 279 279 278 277 275 275 274 274 274 274 274 275 275 276 277 278 279 281 282 282 282 282 281 279 277 275 273 271 270 270 269 269 269 269 269 268 267 265 264 263 263 264 264 264 264 263 262 261 260 260 261 263 265 267 267 264 258 251 245 241 240 239 240 241 243 245 246 247 248 249 250 250 250 248 247 245 243
286 285 285 284 284 283 282 281 280 279 279 279 278 277 275 273 272 272 272 272 273 274 275 275 276 277 279 280 280 280 281 281 279 277 275 273 272 271 269 268 268 267 267 267 267 266 265 263 262 262 262 263 263 264 263 262 261 260 259 260 261 264 266 268 267 264 260 256 252 248 244 242 242 242 244 245 246 247 248 249 250 250 249 248 246 243
287 286 285 285 285 284 283 281 280 280 280 280 280 280 278 276 274 273 272 272 272 273 274 275 276 275 275 275 276 278 279 279 278 276 275 274 272 271 269 268 267 266 266 265 265 264 263 261 260 260 260 261 263 263 263 263 262 261 260 260 260 262 264 265 265 264 261 260 259 257 254 249 246 243 244 245 246 246 247 248 249 249 249 248 245 242
287 287 287 286 285 285 285 284 282 281 281 281 281 281 281 281 280 278 276 274 273 273 274 274 275 275 274 274 275 276 278 278 278 277 276 275 274 272 270 269 267 266 265 264 262 261 260 259 258 259 259 261 262 263 264 264 263 262 261 260 260 261 262 263 263 262 260 259 259 259 260 257 252 247 244 244 245 246 247 247 247 248 248 247 244 242
288 287 287 287 286 285 285 285 284 283 283 282 281 281 281 282 283 283 281 278 275 274 274 273 274 275 275 275 275 276 277 279 279 279 278 277 276 274 272 270 268 266 265 263 261 260 258 257 257 258 259 261 262 264 265 265 265 264 263 262 262 261 261 261 261 261 259 258 258 259 260 260 257 252 246 244 244 245 246 246 246 247 247 245 243 242
289 288 288 288 287 286 285 285 285 285 285 285 284 283 281 281 282 284 285 283 280 278 276 275 274 275 276 277 277 277 279 280 281 281 280 279 278 276 274 271 268 266 265 263 262 260 259 258 258 259 260 261 263 264 265 266 266 265 265 264 263 262 261 260 260 259 259 258 258 258 260 261 260 256 250 245 243 244 244 244 245 245 245 244 243 244
290 290 289 288 287 286 286 286 286 287 287 288 287 286 285 283 283 285 286 286 284 282 281 280 278 276 276 277 278 280 282 282 282 282 281 281 280 278 276 273 270 267 265 264 263 261 260 260 260 260 261 262 263 264 265 265 266 265 265 264 263 262 260 259 258 258 257 257 257 258 259 261 262 259 254 248 245 243 243 243 243 243 244 244 244 246
292 292 291 290 289 288 287 287 288 289 289 290 289 288 287 286 285 286 288 288 287 285 284 284 282 279 277 277 279 281 283 283 282 281 281 280 279 278 276 274 271 268 266 265 264 263 262 262 261 261 261 261 262 262 263 264 264 264 264 263 262 261 260 259 258 257 256 256 257 257 258 260 262 261 257 251 246 242 241 241 241 242 243 244 246 247
294 294 293 292 291 290 289 290 290 290 291 291 290 290 289 289 289 290 291 291 290 289 288 287 285 282 279 278 279 281 283 284 283 282 280 279 277 277 276 274 271 268 266 265 264 264 263 262 262 261 260 260 260 261 262 263 263 263 263 263 262 261 260 259 258 258 257 257 257 257 258 259 261 262 259 252 246 241 239 238 238 240 242 243 245 246
296 295 294 294 293 292 292 292 292 292 292 292 292 293 293 293 293 293 294 294 293 292 292 290 288 285 281 277 277 279 283 285 285 284 283 281 279 278 276 274 271 269 268 266 265 263 262 261 260 259 259 258 259 260 261 262 263 263 263 263 262 262 261 261 260 259 259 259 259 258 258 259 261 261 258 252 244 239 236 236 236 238 240 242 244 244
297 296 295 295 294 294 293 293 294 294 294 294 295 295 296 296 296 296 295 294 294 293 292 291 290 288 285 281 278 279 282 285 286 285 284 282 279 276 274 273 272 272 271 269 267 264 261 259 257 257 257 257 258 259 261 262 263 263 263 263 263 264 263 263 262 262 262 261 261 260 258 258 259 259 255 249 242 237 234 234 235 237 239 242 243 244
297 296 296 295 295 295 295 295 295 295 295 296 297 297 298 297 297 296 294 293 293 292 290 289 287 287 286 284 282 281 282 284 285 284 282 279 277 275 275 276 276 275 274 272 269 266 262 259 257 255 255 256 257 258 260 262 263 263 264 264 265 266 266 266 266 265 265 265 263 261 258 257 256 254 251 245 239 235 233 232 233 235 238 241 243 244
296 295 295 295 295 295 295 295 295 296 296 297 298 298 298 297 296 294 293 292 292 291 290 289 287 285 284 283 282 282 283 284 284 283 281 279 277 276 276 277 278 277 276 273 270 267 263 260 257 255 255 255 256 258 260 261 262 263 263 264 266 267 269 269 270 271 271 269 266 262 258 254 251 248 245 241 237 234 232 232 233 234 236 239 241 242
294 294 293 294 294 294 294 295 296 297 298 299 299 299 298 296 295 294 293 291 290 290 289 289 287 285 284 283 282 282 283 284 285 284 282 280 277 276 275 276 277 276 275 273 270 267 264 261 258 256 255 255 257 258 260 261 262 262 263 263 264 266 268 270 273 274 274 271 267 261 255 250 246 242 239 237 234 233 232 232 233 234 235 237 239 240
293 293 292 293 293 294 294 295 297 299 300 300 300 299 297 295 294 292 291 290 289 288 287 286 285 285 284 284 283 283 283 285 285 285 283 281 278 276 276 277 277 276 275 273 270 267 264 261 259 257 256 257 258 259 261 262 262 262 262 262 262 263 266 269 272 274 274 270 265 257 250 244 239 236 234 233 232 232 232 232 232 233 234 235 237 238
293 292 292 293 294 295 296 298 300 300 299 298 297 295 293 292 291 291 290 289 288 287 286 285 285 285 285 285 284 284 284 284 284 285 284 282 280 278 277 278 278 277 276 274 271 268 265 262 260 259 258 259 260 261 262 263 263 262 261 261 261 262 264 268 270 271 269 265 259 251 244 237 233 230 230 230 230 230 230 230 230 231 232 234 236 237
292 292 292 294 295 296 297 297 296 294 291 290 288 287 288 289 290 290 290 290 289 288 287 287 286 285 285 284 284 284 283 283 283 283 283 282 281 279 278 278 278 277 276 275 273 269 266 263 262 261 261 261 262 263 264 265 264 263 262 261 261 262 264 266 267 266 262 258 252 246 239 233 229 228 228 228 228 228 228 228 229 230 232 234 235 237
292 292 293 294 293 292 291 289 286 285 285 284 285 286 287 289 289 290 290 290 290 289 288 287 286 285 284 283 283 283 283 282 282 283 284 283 281 279 278 279 279 278 277 275 273 270 267 264 263 262 263 264 265 266 267 266 265 264 262 262 262 263 264 264 263 259 254 251 248 243 238 234 230 229 228 228 228 228 228 229 230 232 233 235 237 238
292 292 291 289 287 285 283 282 281 282 283 284 286 287 288 289 290 291 291 291 290 289 288 286 285 283 282 282 282 282 282 282 283 284 284 283 282 280 278 279 281 281 278 275 272 270 268 266 264 264 265 266 267 268 268 267 266 264 263 262 263 263 263 261 257 251 248 247 246 245 244 242 238 234 231 230 229 229 230 231 233 234 236 238 240 241
289 287 285 283 281 280 279 280 280 282 283 285 288 290 291 292 293 292 291 291 290 288 286 284 282 281 281 282 282 282 282 282 282 282 282 283 282 281 279 279 281 282 280 277 274 272 270 268 267 266 267 268 268 268 268 266 265 264 263 263 264 263 261 256 250 245 244 244 246 247 248 247 243 237 233 230 229 229 230 232 234 237 239 241 242 243
285 283 282 281 281 281 281 282 282 284 285 288 290 292 294 294 294 293 292 290 289 286 283 281 280 280 281 281 281 282 282 282 282 282 282 283 283 281 279 279 280 281 281 279 276 273 272 271 270 269 270 270 270 269 267 265 263 263 263 265 265 263 257 250 243 241 241 243 246 248 249 247 242 236 230 227 226 227 229 232 235 238 240 241 242 242
285 284 284 284 285 285 286 286 287 288 289 291 292 293 294 294 294 293 292 291 289 286 284 282 281 281 282 282 282 282 281 281 281 281 281 282 282 281 279 279 279 280 281 280 277 274 273 272 272 271 272 271 270 269 266 264 263 263 265 267 265 260 252 244 239 239 241 244 247 249 249 245 239 232 226 222 222 224 227 231 234 237 239 240 240 240
287 287 288 288 289 290 290 291 292 292 293 293 294 294 294 294 294 293 293 292 290 287 285 283 282 282 282 282 282 281 280 280 280 280 280 281 281 280 279 279 280 280 281 280 278 276 274 273 272 272 272 271 270 269 267 266 266 267 269 269 265 256 247 240 238 240 243 246 248 250 248 243 235 227 221 219 219 222 226 230 234 236 238 239 239 239
291 291 291 291 292 294 295 296 296 296 296 296 296 296 296 295 295 294 294 293 291 288 285 283 282 282 282 282 282 282 280 279 279 280 280 281 281 281 280 280 280 280 280 281 280 279 276 273 272 271 270 270 271 271 271 272 273 274 274 270 263 253 244 240 240 243 246 248 250 250 246 239 230 223 218 217 219 222 226 230 233 236 237 238 238 238
296 296 296 296 296 297 298 299 299 298 298 298 298 298 298 297 297 296 296 295 292 290 287 285 283 283 283 283 283 283 281 280 279 280 281 282 282 281 281 281 281 280 279 280 281 281 279 275 272 270 269 271 273 275 277 279 279 278 275 270 261 251 245 243 244 247 249 251 251 248 242 233 225 219 217 217 220 223 228 231 234 236 237 237 237 237
299 298 298 299 300 300 301 301 300 300 300 300 300 300 300 299 299 298 298 296 294 292 289 287 285 284 284 284 283 283 283 282 281 282 283 283 282 281 280 280 280 279 278 278 278 279 279 277 274 271 271 273 276 279 281 281 280 277 272 266 258 250 246 246 248 250 251 251 249 244 237 228 222 218 217 219 222 226 230 232 234 235 236 236 236 236
300 300 301 301 302 302 302 302 301 301 301 302 302 302 302 301 300 300 299 298 296 293 291 288 287 286 285 284 284 284 284 283 284 284 284 283 282 281 280 279 279 279 277 276 275 275 276 275 274 273 275 277 280 282 282 279 275 271 265 259 253 249 248 249 251 252 252 250 246 240 232 225 220 219 219 222 225 228 231 233 234 234 235 235 234 233
303 303 304 304 304 304 303 302 302 303 303 304 304 304 303 303 302 301 301 299 297 295 292 290 289 287 287 286 285 284 285 284 284 284 283 283 281 280 279 278 278 278 277 276 275 274 273 272 273 275 278 281 282 281 279 275 269 263 257 253 250 249 250 252 253 253 252 248 242 235 228 223 220 219 221 223 226 228 230 232 232 233 233 232 231 229
306 306 306 306 305 305 304 304 304 305 305 306 306 306 306 305 304 303 302 300 298 295 293 291 289 288 287 286 285 285 285 284 283 283 282 281 281 280 279 278 277 276 276 275 274 274 273 272 272 275 279 282 282 278 274 268 262 256 253 251 251 252 253 254 254 252 249 244 237 230 225 222 220 220 221 224 226 228 230 231 231 231 230 229 227 225
308 307 307 307 306 306 305 305 306 307 307 308 308 308 308 307 306 304 303 301 299 297 295 293 291 289 287 286 285 284 284 283 282 281 281 281 280 279 278 277 275 274 274 273 273 273 273 273 273 274 278 280 278 273 267 261 255 251 250 251 252 253 254 254 252 249 243 237 231 227 224 222 221 221 223 224 226 228 229 229 229 228 226 223 221 219
309 309 308 308 307 307 307 307 308 309 310 310 311 311 310 309 308 306 304 303 301 299 298 296 293 291 289 287 285 284 283 282 281 280 279 279 278 277 276 275 273 272 272 272 272 272 273 274 274 275 277 277 272 265 257 253 250 249 250 251 252 252 252 251 248 243 237 231 226 224 223 222 222 223 224 225 227 227 227 226 224 221 218 216 214 213
311 310 310 309 309 308 308 309 309 310 311 312 312 313 312 312 310 308 306 304 303 301 299 297 295 293 290 288 286 284 283 281 280 278 277 276 275 274 274 273 272 271 270 270 270 271 272 274 276 277 277 274 266 258 250 247 247 248 250 251 251 251 248 246 243 238 232 226 223 221 221 221 222 222 223 224 224 224 222 220 216 213 210 209 208 208
313 312 311 310 310 310 310 310 311 312 312 313 313 314 313 313 311 309 307 305 304 302 300 298 295 293 291 288 286 284 282 280 279 277 275 273 272 271 271 271 271 270 269 269 269 269 270 272 274 274 273 268 260 252 247 245 246 247 248 249 248 247 244 242 238 233 228 223 220 219 219 219 219 220 220 220 219 218 215 211 208 206 205 205 205 206
314 313 312 311 311 311 311 312 312 313 313 313 314 314 314 313 311 309 307 305 303 301 299 297 295 293 291 288 286 283 282 280 279 277 275 273 271 270 269 269 269 269 268 268 268 268 270 270 271 270 267 261 254 248 245 244 244 244 244 244 242 241 240 236 232 228 224 220 217 216 216 216 216 216 215 213 212 209 207 205 204 203 204 205 206 206
315 313 312 311 311 311 312 312 313 313 314 314 314 315 314 314 312 310 308 305 303 301 298 296 293 291 289 287 285 284 282 280 279 277 275 273 272 270 269 269 269 268 268 268 268 268 268 269 268 266 262 256 249 243 241 240 239 239 237 235 234 233 232 229 225 221 217 214 212 212 211 211 210 209 207 205 203 201 200 200 200 201 203 204 206 208
314 313 312 312 312 312 313 313 314 314 315 315 316 316 316 314 313 310 308 305 302 300 298 295 292 289 287 285 284 283 283 282 280 279 277 276 274 273 273 272 271 270 269 268 267 267 266 265 262 259 254 248 243 238 235 234 232 231 228 224 221 221 220 218 215 211 207 205 204 204 203 203 202 201 199 197 196 196 196 197 198 199 201 202 204 205
314 314 313 313 313 314 314 314 315 315 316 316 317 317 316 315 313 311 308 305 302 299 297 295 292 288 286 286 287 286 284 283 281 280 278 277 277 276 275 275 274 272 269 266 264 263 261 258 254 250 245 240 234 229 226 224 222 219 214 209 205 202 200 201 200 198 196 195 195 195 195 195 195 194 194 193 194 194 195 196 198 199 200 200 200 200
315 315 314 314 315 315 315 316 316 317 317 318 318 318 317 315 314 311 308 304 302 300 297 295 292 289 289 293 296 294 288 286 283 280 278 277 276 276 275 274 272 270 267 262 257 254 251 248 243 239 234 227 221 215 212 209 205 199 195 192 188 185 183 185 187 188 187 187 188 189 190 190 191 191 191 192 193 194 195 196 197 198 199 198 197 196
316 316 315 316 316 316 317 317 317 318 318 319 319 318 317 315 313 310 307 304 301 299 298 296 296 298 303 306 305 301 293 288 285 282 279 276 274 272 270 267 264 261 258 253 249 244 238 233 227 222 216 208 201 196 193 188 184 180 178 177 175 173 173 175 179 181 182 183 185 186 187 188 189 190 191 191 192 193 193 193 193 193 194 194 194 194
318 317 317 317 317 317 318 318 318 319 320 320 319 318 316 314 312 309 306 303 302 301 300 299 303 309 311 309 306 301 295 288 282 278 275 272 268 265 261 257 253 248 244 240 236 230 223 214 205 197 189 184 181 178 175 171 168 167 168 168 167 166 167 170 173 177 179 181 183 184 186 187 188 189 189 189 189 188 188 189 189 189 190 192 194 195
319 318 318 318 318 319 319 319 320 320 320 320 319 317 316 314 311 308 306 304 304 305 306 308 313 314 309 304 297 290 283 276 271 266 263 259 255 250 245 241 237 233 228 224 218 212 204 195 185 176 170 167 167 166 165 162 160 161 162 164 164 165 167 169 173 176 179 180 181 182 183 184 185 185 185 184 184 183 183 185 187 190 192 194 196 197
320 320 320 320 320 320 320 321 321 321 320 319 318 317 315 313 312 310 310 309 310 314 318 319 316 310 300 292 283 275 266 259 253 248 244 240 235 229 222 214 209 205 203 200 197 193 187 179 172 166 163 162 162 161 160 158 157 158 160 162 165 167 169 171 174 176 178 179 179 178 178 179 179 178 178 179 180 182 184 186 189 192 195 197 199 200
321 321 322 322 322 322 322 322 322 321 320 318 316 315 315 313 313 314 316 317 320 322 323 316 306 293 280 271 263 256 249 241 235 229 223 215 208 199 189 182 177 175 175 177 179 177 174 170 166 163 161 160 159 158 157 156 156 157 160 163 166 167 169 171 173 174 175 175 174 173 173 173 174 175 177 179 182 185 188 191 193 196 198 200 201 202
323 323 323 323 323 322 322 322 322 321 320 318 317 316 317 317 317 318 321 325 326 324 316 302 285 269 256 246 238 231 223 215 208 200 192 185 176 169 164 162 161 162 163 164 165 165 163 161 159 159 159 159 158 157 155 155 156 158 161 163 165 166 166 167 168 168 168 168 167 167 168 171 174 178 182 184 187 190 193 195 197 199 201 202 203 204
325 325 324 324 323 323 322 322 322 322 321 321 321 322 325 329 330 330 331 330 325 316 300 281 261 244 230 220 211 201 191 180 168 159 155 155 153 152 153 155 156 157 156 156 155 154 152 153 153 153 152 153 155 155 154 154 154 156 158 159 160 161 160 160 160 161 161 163 165 169 173 177 181 185 188 190 193 195 197 199 200 201 203 204 205 206
Height
2869 2867 2867 2867 2867 2866 2865 2866 2865 2863 2861 2860 2860 2859 2858 2857 2856 2855 2854 2853 2851 2851 2850 2849 2849 2848 2848 2848 2848 2848 2848 2848 2848 2848 2849 2849 2849 2849 2849 2849 2849 2849 2850 2850 2850 2850 2850 2850 2850 2850 2850 2850 2850 2850 2850 2850 2850 2851 2851 2851 2852 2853 2854 2855 2856 2857 2858 2859 2861 2862 2863 2865 2866 2868 2869 2870 2871 2872 2873 2875 2876 2877 2879 2880 2882 2884
2864 2863 2862 2862 2862 2861 2859 2860 2860 2859 2856 2855 2854 2854 2852 2851 2850 2849 2848 2847 2846 2845 2844 2843 2843 2843 2843 2843 2843 2843 2844 2844 2844 2844 2844 2843 2843 2844 2844 2844 2844 2844 2845 2845 2845 2845 2845 2845 2844 2844 2844 2844 2844 2844 2845 2845 2845 2846 2846 2847 2847 2848 2849 2851 2852 2853 2854 2855 2856 2857 2859 2860 2861 2863 2864 2865 2866 2867 2868 2870 2871 2872 2874 2876 2877 2879
2860 2858 2857 2858 2857 2856 2855 2854 2854 2854 2851 2849 2848 2848 2846 2845 2844 2843 2843 2842 2841 2840 2838 2838 2837 2837 2837 2837 2838 2838 2839 2839 2839 2839 2839 2839 2839 2839 2839 2839 2839 2839 2840 2840 2840 2840 2840 2839 2839 2839 2839 2839 2839 2839 2840 2840 2840 2841 2841 2842 2843 2843 2844 2846 2847 2848 2849 2850 2851 2853 2854 2856 2857 2858 2859 2861 2862 2863 2864 2865 2866 2867 2869 2871 2872 2874
2855 2853 2852 2852 2852 2851 2851 2850 2849 2848 2847 2845 2843 2842 2841 2840 2839 2838 2837 2836 2835 2834 2833 2832 2833 2832 2832 2831 2832 2832 2833 2833 2834 2834 2834 2834 2834 2834 2834 2834 2834 2834 2835 2835 2835 2836 2836 2835 2835 2835 2834 2834 2834 2834 2835 2835 2836 2836 2837 2837 2838 2839 2840 2841 2842 2844 2845 2846 2846 2848 2850 2851 2852 2853 2855 2856 2857 2859 2860 2860 2861 2863 2864 2866 2868 2869
2848 2848 2846 2846 2846 2845 2845 2845 2844 2842 2841 2840 2838 2837 2836 2835 2834 2833 2832 2831 2830 2829 2828 2827 2827 2827 2826 2826 2826 2826 2827 2828 2828 2828 2829 2829 2830 2830 2830 2830 2829 2829 2830 2830 2831 2831 2831 2832 2831 2831 2830 2830 2830 2830 2830 2831 2831 2832 2832 2833 2834 2834 2835 2835 2836 2838 2840 2841 2842 2843 2845 2846 2848 2849 2850 2851 2853 2855 2856 2856 2857 2858 2860 2862 2864 2866
2842 2842 2841 2840 2839 2839 2839 2839 2839 2837 2836 2834 2833 2832 2831 2830 2829 2828 2827 2826 2825 2824 2823 2823 2822 2821 2821 2820 2821 2821 2821 2822 2823 2823 2824 2824 2825 2825 2825 2825 2825 2825 2825 2825 2826 2826 2827 2827 2827 2827 2826 2826 2825 2825 2826 2826 2826 2827 2827 2828 2829 2829 2830 2830 2831 2833 2835 2836 2837 2839 2841 2842 2843 2844 2845 2846 2848 2851 2852 2853 2854 2855 2856 2858 2860 2861
2836 2836 2836 2835 2834 2833 2833 2833 2832 2832 2830 2828 2827 2826 2826 2825 2824 2823 2822 2821 2820 2819 2818 2818 2817 2817 2816 2816 2816 2816 2816 2817 2818 2819 2819 2819 2819 2820 2821 2821 2821 2821 2820 2821 2821 2822 2822 2823 2823 2823 2822 2821 2821 2821 2821 2821 2822 2823 2823 2824 2824 2825 2825 2825 2826 2828 2830 2831 2833 2834 2836 2837 2839 2840 2841 2842 2844 2846 2848 2850 2851 2851 2852 2854 2856 2857
2829 2829 2830 2829 2828 2827 2826 2826 2826 2826 2825 2822 2820 2819 2818 2818 2818 2817 2816 2816 2816 2815 2813 2812 2812 2812 2812 2812 2812 2812 2812 2813 2814 2814 2814 2813 2814 2815 2816 2816 2816 2816 2816 2816 2816 2817 2818 2818 2818 2818 2818 2817 2816 2816 2816 2817 2817 2818 2819 2820 2821 2821 2821 2821 2822 2824 2826 2827 2828 2829 2831 2832 2834 2836 2837 2838 2840 2841 2844 2845 2846 2847 2848 2850 2851 2853
2824 2822 2822 2823 2822 2821 2819 2819 2820 2821 2820 2817 2815 2813 2812 2811 2810 2811 2811 2810 2811 2810 2810 2809 2807 2807 2806 2807 2807 2806 2806 2806 2807 2807 2808 2808 2809 2810 2811 2811 2811 2811 2812 2812 2812 2813 2813 2813 2813 2814 2813 2813 2812 2812 2812 2812 2813 2814 2815 2815 2816 2817 2818 2818 2819 2820 2822 2824 2825 2826 2827 2828 2829 2831 2832 2834 2835 2837 2839 2840 2841 2843 2844 2846 2847 2849
2820 2818 2817 2816 2816 2816 2814 2812 2812 2814 2814 2812 2811 2809 2808 2806 2804 2804 2804 2804 2805 2805 2805 2804 2803 2801 2801 2801 2801 2801 2800 2800 2801 2801 2802 2802 2804 2805 2806 2806 2806 2806 2807 2807 2808 2808 2809 2809 2809 2809 2809 2809 2809 2809 2808 2809 2809 2810 2810 2811 2812 2813 2814 2814 2815 2816 2817 2819 2820 2821 2823 2825 2826 2826 2828 2829 2831 2832 2834 2836 2837 2839 2840 2841 2843 2845
2814 2814 2813 2811 2811 2810 2810 2808 2807 2807 2808 2807 2806 2805 2804 2803 2801 2799 2798 2797 2798 2799 2799 2799 2798 2797 2796 2795 2796 2796 2796 2795 2795 2796 2797 2798 2799 2800 2801 2801 2801 2802 2802 2803 2803 2804 2804 2805 2805 2806 2806 2806 2806 2805 2805 2805 2805 2806 2806 2806 2807 2808 2809 2810 2811 2811 2812 2814 2816 2817 2818 2820 2821 2822 2823 2825 2826 2828 2830 2831 2833 2835 2836 2838 2839 2840
2810 2809 2808 2806 2805 2804 2804 2803 2803 2802 2802 2802 2800 2799 2799 2799 2799 2797 2794 2792 2792 2793 2793 2793 2793 2792 2792 2791 2791 2791 2791 2790 2790 2791 2791 2792 2794 2795 2796 2796 2796 2797 2797 2798 2798 2799 2800 2801 2801 2802 2802 2802 2802 2802 2801 2801 2801 2801 2802 2802 2803 2803 2804 2805 2806 2807 2808 2810 2811 2812 2813 2815 2816 2818 2819 2820 2821 2823 2825 2827 2829 2831 2832 2833 2834 2835
2806 2804 2803 2801 2801 2800 2799 2798 2798 2798 2798 2797 2796 2795 2793 2793 2794 2793 2791 2789 2788 2788 2788 2787 2786 2786 2787 2787 2787 2787 2786 2786 2786 2786 2787 2787 2788 2790 2790 2791 2791 2792 2793 2793 2793 2795 2796 2796 2797 2797 2798 2798 2798 2798 2798 2797 2797 2797 2797 2798 2798 2799 2799 2800 2801 2802 2804 2805 2806 2807 2808 2810 2811 2813 2814 2815 2816 2818 2821 2823 2826 2828 2829 2829 2829 2830
2801 2801 2799 2797 2796 2795 2795 2795 2794 2793 2793 2793 2792 2791 2789 2789 2789 2788 2787 2785 2784 2784 2784 2782 2781 2781 2782 2783 2783 2783 2783 2782 2782 2781 2782 2782 2784 2785 2785 2786 2786 2787 2788 2789 2789 2790 2792 2792 2792 2793 2794 2794 2794 2794 2794 2793 2793 2793 2793 2793 2793 2794 2795 2795 2796 2797 2798 2799 2800 2802 2803 2805 2806 2808 2809 2810 2811 2813 2816 2819 2822 2823 2824 2825 2825 2826
2798 2797 2795 2793 2792 2791 2791 2791 2790 2789 2788 2788 2788 2787 2786 2785 2785 2784 2783 2781 2780 2780 2780 2779 2777 2776 2777 2778 2779 2780 2779 2778 2777 2777 2777 2777 2779 2780 2780 2780 2781 2782 2784 2784 2785 2786 2788 2788 2788 2789 2789 2790 2790 2790 2789 2789 2789 2788 2788 2788 2789 2789 2790 2790 2791 2792 2793 2793 2794 2796 2797 2799 2801 2802 2804 2805 2806 2808 2811 2815 2817 2819 2820 2821 2821 2823
2795 2793 2791 2789 2787 2787 2787 2787 2786 2785 2784 2784 2784 2783 2782 2781 2781 2781 2780 2778 2777 2777 2776 2775 2773 2771 2771 2774 2776 2777 2776 2774 2773 2772 2772 2772 2773 2775 2776 2776 2776 2776 2778 2780 2781 2782 2783 2784 2784 2784 2785 2785 2785 2785 2785 2784 2784 2784 2784 2784 2785 2785 2786 2786 2786 2786 2787 2788 2789 2790 2791 2793 2795 2796 2798 2800 2801 2804 2807 2810 2812 2814 2815 2816 2817 2819
2791 2789 2787 2786 2784 2783 2783 2783 2783 2782 2781 2780 2780 2780 2779 2778 2778 2777 2777 2775 2775 2774 2773 2772 2770 2768 2766 2767 2770 2773 2773 2771 2770 2770 2769 2768 2769 2771 2773 2773 2772 2772 2773 2775 2777 2778 2779 2780 2780 2781 2781 2781 2781 2781 2780 2780 2780 2779 2780 2780 2780 2781 2781 2781 2781 2782 2782 2783 2783 2784 2785 2787 2789 2791 2793 2795 2797 2799 2802 2805 2807 2809 2811 2812 2814 2816
2787 2785 2784 2782 2781 2780 2779 2780 2779 2779 2778 2777 2777 2776 2776 2776 2775 2775 2774 2772 2772 2771 2769 2769 2767 2766 2764 2763 2765 2767 2769 2769 2767 2765 2764 2762 2762 2764 2766 2766 2766 2766 2767 2770 2772 2774 2775 2776 2776 2776 2776 2777 2777 2776 2776 2776 2776 2776 2775 2776 2776 2776 2776 2776 2777 2777 2778 2778 2778 2779 2780 2782 2784 2786 2789 2791 2792 2795 2797 2800 2802 2804 2806 2808 2810 2812
2783 2782 2781 2780 2778 2776 2776 2776 2776 2776 2776 2775 2774 2774 2773 2772 2772 2771 2771 2769 2768 2767 2766 2765 2763 2762 2761 2761 2761 2762 2764 2764 2761 2759 2758 2757 2758 2760 2762 2762 2761 2762 2763 2765 2768 2770 2771 2771 2771 2772 2772 2772 2772 2772 2772 2772 2772 2772 2772 2772 2772 2772 2773 2773 2773 2774 2773 2773 2774 2774 2776 2777 2780 2782 2784 2786 2788 2791 2793 2795 2797 2800 2802 2805 2806 2809
2780 2779 2778 2777 2776 2774 2773 2773 2773 2774 2773 2772 2771 2771 2770 2768 2768 2767 2766 2766 2765 2764 2763 2761 2760 2759 2758 2757 2757 2759 2761 2760 2758 2756 2754 2753 2753 2755 2758 2758 2758 2757 2759 2761 2764 2766 2766 2766 2767 2767 2768 2768 2768 2768 2768 2768 2768 2768 2768 2768 2769 2769 2769 2770 2770 2770 2770 2769 2769 2770 2771 2773 2776 2778 2781 2782 2784 2786 2789 2791 2793 2796 2798 2801 2803 2805
2776 2775 2775 2774 2774 2773 2771 2770 2771 2771 2771 2771 2770 2768 2767 2766 2765 2764 2763 2762 2761 2760 2760 2759 2757 2755 2755 2754 2754 2755 2757 2756 2755 2752 2750 2748 2748 2750 2753 2754 2754 2754 2754 2757 2760 2761 2762 2762 2762 2763 2764 2764 2764 2764 2764 2765 2765 2765 2765 2765 2765 2766 2766 2767 2767 2766 2766 2766 2766 2767 2768 2770 2772 2775 2776 2779 2781 2783 2785 2787 2790 2792 2795 2797 2799 2801
2774 2772 2771 2771 2771 2771 2769 2768 2768 2769 2770 2770 2770 2768 2765 2763 2761 2760 2758 2758 2757 2756 2755 2754 2752 2751 2751 2751 2750 2751 2753 2752 2751 2749 2747 2745 2744 2745 2750 2750 2750 2750 2750 2753 2755 2757 2758 2758 2758 2759 2760 2760 2760 2760 2761 2761 2761 2761 2761 2761 2762 2763 2763 2764 2764 2764 2763 2763 2763 2764 2766 2767 2769 2771 2773 2775 2777 2780 2782 2784 2786 2788 2791 2793 2795 2797
2771 2769 2768 2768 2768 2768 2768 2768 2768 2768 2768 2768 2766 2764 2762 2760 2758 2756 2754 2753 2752 2751 2750 2749 2748 2748 2748 2747 2747 2747 2748 2748 2748 2747 2746 2742 2741 2742 2746 2746 2746 2746 2746 2749 2751 2752 2753 2754 2754 2755 2756 2756 2756 2756 2757 2757 2757 2757 2758 2758 2759 2760 2760 2761 2761 2761 2761 2761 2761 2762 2763 2764 2766 2768 2770 2772 2774 2776 2778 2780 2783 2785 2787 2789 2791 2793
2768 2766 2766 2766 2767 2767 2766 2766 2766 2765 2764 2762 2761 2759 2758 2756 2755 2753 2751 2750 2749 2748 2746 2745 2744 2744 2743 2744 2744 2744 2744 2745 2745 2744 2743 2740 2738 2739 2742 2743 2743 2742 2743 2746 2747 2748 2748 2750 2751 2751 2751 2752 2752 2753 2753 2753 2753 2754 2754 2755 2756 2756 2757 2757 2757 2758 2758 2758 2759 2760 2761 2762 2763 2765 2767 2769 2771 2773 2775 2777 2779 2781 2784 2786 2788 2790
2766 2765 2765 2765 2765 2764 2763 2762 2761 2760 2759 2758 2757 2756 2754 2753 2751 2750 2748 2747 2746 2745 2744 2742 2741 2740 2739 2740 2741 2741 2741 2743 2743 2742 2741 2738 2736 2736 2738 2739 2739 2739 2739 2741 2743 2744 2744 2746 2746 2747 2748 2748 2749 2749 2749 2749 2750 2750 2751 2751 2752 2753 2753 2754 2754 2755 2755 2756 2756 2757 2758 2759 2760 2762 2763 2766 2767 2769 2771 2774 2776 2778 2781 2783 2785 2787
2764 2763 2762 2761 2761 2760 2759 2759 2758 2758 2757 2756 2754 2753 2751 2749 2748 2746 2745 2745 2744 2743 2741 2740 2738 2736 2736 2737 2737 2737 2738 2738 2738 2739 2738 2736 2733 2732 2734 2736 2736 2735 2735 2737 2738 2739 2741 2741 2743 2744 2744 2744 2745 2745 2745 2746 2746 2747 2748 2749 2749 2750 2750 2751 2751 2751 2752 2753 2753 2754 2755 2756 2757 2759 2761 2762 2764 2766 2768 2771 2773 2775 2778 2780 2782 2784
2761 2760 2758 2757 2757 2756 2756 2756 2755 2755 2754 2753 2752 2751 2749 2747 2745 2744 2742 2741 2741 2740 2738 2736 2733 2732 2732 2732 2733 2733 2734 2734 2735 2734 2734 2733 2731 2729 2730 2732 2733 2733 2732 2733 2734 2735 2736 2738 2739 2740 2741 2741 2741 2741 2741 2742 2743 2744 2745 2746 2746 2746 2747 2748 2748 2749 2749 2750 2751 2751 2752 2754 2755 2756 2758 2760 2761 2763 2765 2768 2770 2772 2775 2777 2779 2781
2757 2756 2755 2755 2754 2753 2753 2752 2752 2751 2751 2750 2750 2748 2747 2746 2744 2741 2738 2737 2737 2736 2733 2731 2730 2729 2728 2729 2729 2730 2730 2731 2731 2731 2731 2730 2728 2727 2727 2729 2730 2730 2730 2730 2730 2731 2732 2734 2735 2736 2737 2737 2737 2737 2738 2739 2740 2741 2742 2743 2743 2744 2744 2745 2746 2746 2746 2747 2748 2749 2750 2751 2752 2754 2755 2757 2759 2761 2763 2765 2767 2769 2771 2773 2775 2777
2754 2753 2752 2751 2751 2750 2750 2749 2749 2749 2748 2747 2746 2745 2744 2743 2741 2738 2735 2734 2733 2731 2730 2729 2728 2726 2726 2725 2725 2725 2726 2727 2728 2728 2728 2727 2725 2724 2725 2726 2726 2726 2727 2726 2726 2727 2728 2730 2732 2733 2734 2734 2734 2734 2735 2736 2737 2738 2739 2740 2740 2741 2741 2742 2743 2743 2744 2745 2746 2747 2748 2749 2750 2751 2753 2755 2756 2758 2760 2762 2765 2766 2768 2770 2772 2774
2751 2750 2749 2748 2748 2747 2747 2746 2746 2745 2745 2744 2743 2742 2740 2739 2738 2736 2733 2731 2731 2729 2726 2725 2724 2724 2723 2722 2721 2721 2722 2724 2725 2725 2725 2724 2723 2722 2722 2722 2723 2724 2724 2724 2723 2723 2724 2726 2728 2730 2731 2731 2731 2731 2732 2732 2733 2734 2736 2736 2737 2738 2739 2739 2740 2741 2741 2742 2743 2744 2745 2746 2747 2749 2750 2752 2754 2756 2758 2760 2761 2763 2765 2767 2769 2771
2747 2746 2746 2745 2745 2744 2744 2743 2742 2742 2741 2740 2739 2738 2737 2735 2734 2732 2730 2729 2727 2726 2723 2722 2721 2721 2720 2720 2718 2718 2718 2720 2722 2722 2722 2721 2720 2719 2719 2719 2720 2720 2721 2721 2721 2721 2721 2722 2723 2725 2727 2728 2728 2729 2729 2729 2730 2731 2732 2733 2734 2735 2736 2737 2737 2738 2739 2740 2741 2742 2743 2744 2745 2746 2748 2750 2751 2753 2755 2757 2759 2761 2762 2764 2766 2768
2744 2743 2743 2742 2741 2741 2741 2740 2739 2738 2737 2736 2736 2734 2733 2732 2730 2729 2727 2726 2724 2722 2720 2719 2718 2717 2717 2717 2716 2715 2714 2716 2718 2719 2719 2718 2717 2716 2716 2716 2716 2717 2718 2719 2719 2719 2719 2719 2720 2721 2723 2725 2725 2726 2726 2727 2727 2728 2729 2730 2731 2732 2733 2734 2735 2736 2737 2738 2739 2740 2741 2741 2743 2744 2746 2747 2749 2751 2753 2755 2756 2758 2760 2761 2763 2765
2742 2741 2740 2739 2739 2738 2738 2737 2736 2735 2734 2733 2732 2731 2730 2728 2726 2725 2724 2722 2721 2719 2718 2716 2715 2714 2714 2713 2713 2712 2712 2713 2715 2716 2716 2715 2714 2713 2713 2714 2714 2714 2715 2716 2716 2716 2716 2717 2717 2718 2720 2721 2722 2723 2723 2724 2725 2726 2726 2727 2728 2729 2730 2731 2732 2733 2734 2735 2736 2737 2738 2739 2741 2742 2744 2746 2747 2749 2751 2752 2754 2756 2757 2758 2760 2761
2740 2739 2738 2737 2736 2736 2735 2734 2733 2732 2731 2730 2729 2727 2726 2724 2723 2722 2721 2719 2718 2716 2715 2714 2713 2711 2711 2710 2710 2709 2710 2711 2713 2713 2713 2712 2711 2710 2710 2711 2711 2712 2712 2712 2713 2713 2714 2714 2715 2716 2717 2718 2719 2720 2721 2721 2722 2723 2724 2724 2726 2726 2727 2728 2729 2730 2731 2731 2733 2734 2735 2737 2738 2740 2742 2744 2745 2747 2748 2750 2751 2753 2754 2756 2757 2759
2737 2736 2736 2735 2734 2733 2732 2731 2730 2729 2728 2727 2726 2724 2723 2721 2719 2718 2717 2716 2715 2714 2712 2711 2710 2709 2708 2707 2707 2706 2707 2709 2710 2710 2710 2710 2708 2707 2707 2707 2708 2709 2709 2710 2710 2710 2711 2711 2712 2713 2714 2715 2716 2716 2717 2718 2719 2720 2721 2722 2723 2724 2725 2726 2726 2727 2728 2729 2730 2731 2732 2734 2736 2737 2739 2741 2743 2745 2746 2747 2749 2751 2752 2754 2755 2757
2735 2734 2734 2733 2732 2730 2729 2728 2727 2726 2725 2723 2722 2721 2719 2717 2716 2715 2713 2712 2711 2710 2709 2708 2707 2707 2706 2705 2704 2703 2703 2705 2706 2707 2707 2707 2706 2705 2704 2704 2705 2706 2706 2706 2707 2707 2708 2708 2708 2710 2711 2712 2714 2715 2715 2716 2716 2718 2719 2720 2720 2721 2722 2723 2724 2724 2725 2726 2727 2729 2730 2732 2733 2735 2737 2739 2741 2742 2743 2745 2747 2748 2750 2752 2753 2756
2733 2732 2731 2731 2729 2728 2727 2726 2724 2723 2721 2720 2718 2717 2716 2714 2712 2711 2710 2709 2707 2706 2706 2705 2704 2704 2703 2702 2701 2701 2701 2701 2702 2703 2704 2704 2703 2703 2702 2701 2702 2703 2704 2704 2704 2705 2705 2705 2706 2706 2708 2710 2711 2712 2713 2713 2714 2715 2716 2716 2717 2718 2719 2720 2721 2722 2723 2724 2725 2727 2728 2730 2731 2733 2735 2737 2739 2740 2741 2743 2745 2746 2748 2750 2752 2754
2731 2730 2729 2728 2727 2726 2724 2723 2722 2720 2719 2717 2715 2713 2712 2711 2709 2707 2706 2705 2704 2703 2702 2701 2701 2700 2700 2699 2698 2697 2697 2698 2699 2700 2700 2701 2700 2700 2699 2699 2699 2700 2701 2701 2701 2702 2702 2703 2703 2704 2705 2706 2708 2709 2710 2710 2711 2711 2712 2713 2714 2715 2716 2717 2718 2719 2720 2721 2723 2725 2726 2728 2730 2731 2733 2735 2736 2737 2739 2741 2743 2745 2746 2748 2750 2752
2729 2728 2727 2726 2725 2723 2721 2720 2719 2717 2716 2714 2712 2711 2709 2707 2706 2705 2703 2702 2701 2700 2699 2698 2697 2696 2696 2696 2695 2695 2694 2695 2695 2696 2697 2697 2697 2697 2696 2696 2696 2697 2698 2699 2699 2699 2700 2700 2701 2701 2702 2703 2705 2706 2706 2707 2708 2709 2710 2711 2711 2712 2713 2715 2716 2717 2718 2719 2721 2722 2724 2726 2727 2729 2731 2732 2734 2736 2737 2739 2741 2743 2744 2746 2748 2750
2727 2726 2725 2724 2722 2721 2719 2717 2716 2714 2713 2711 2710 2708 2706 2705 2703 2701 2701 2699 2698 2697 2696 2695 2694 2693 2693 2692 2692 2692 2691 2692 2692 2693 2693 2694 2694 2694 2694 2694 2694 2694 2695 2696 2696 2696 2697 2697 2698 2698 2699 2700 2701 2703 2703 2704 2705 2706 2706 2707 2708 2709 2711 2712 2713 2715 2716 2717 2719 2720 2722 2724 2725 2727 2729 2731 2732 2734 2736 2738 2740 2741 2743 2745 2746 2748
2725 2724 2722 2721 2720 2718 2717 2715 2713 2712 2710 2708 2707 2705 2703 2701 2700 2698 2697 2696 2695 2694 2693 2691 2691 2690 2690 2689 2689 2689 2689 2689 2689 2690 2690 2690 2691 2691 2691 2691 2691 2691 2692 2693 2693 2693 2694 2694 2695 2695 2696 2697 2698 2699 2700 2701 2702 2703 2704 2704 2706 2707 2708 2710 2711 2713 2714 2716 2717 2719 2721 2722 2724 2726 2728 2730 2731 2734 2735 2737 2739 2741 2742 2744 2746 2747
2723 2721 2720 2719 2717 2716 2714 2712 2711 2709 2707 2706 2704 2702 2700 2698 2696 2695 2693 2692 2691 2690 2689 2688 2687 2687 2686 2686 2686 2686 2686 2686 2686 2686 2687 2687 2687 2688 2688 2688 2689 2689 2689 2690 2690 2690 2690 2691 2691 2692 2693 2694 2695 2696 2697 2698 2699 2700 2701 2702 2704 2706 2707 2708 2710 2711 2713 2714 2716 2718 2720 2721 2723 2725 2727 2729 2731 2732 2734 2736 2737 2739 2741 2742 2744 2746
2721 2719 2718 2716 2715 2713 2711 2710 2708 2706 2705 2703 2701 2699 2697 2695 2693 2691 2690 2688 2687 2687 2686 2685 2684 2684 2683 2683 2683 2683 2683 2683 2683 2684 2684 2684 2685 2685 2686 2686 2686 2686 2686 2686 2687 2687 2687 2688 2689 2689 2690 2691 2692 2693 2694 2695 2696 2697 2699 2700 2702 2703 2705 2706 2708 2710 2711 2713 2715 2717 2719 2721 2722 2724 2726 2728 2730 2731 2733 2734 2736 2737 2739 2741 2742 2744
2719 2717 2716 2714 2712 2711 2709 2707 2706 2704 2702 2700 2698 2696 2694 2692 2690 2688 2686 2685 2684 2683 2683 2682 2681 2681 2681 2680 2680 2680 2680 2680 2681 2681 2681 2682 2682 2682 2683 2683 2683 2684 2684 2684 2684 2685 2685 2686 2686 2687 2688 2689 2690 2691 2692 2693 2694 2696 2697 2699 2700 2701 2703 2705 2707 2709 2711 2713 2715 2716 2718 2720 2722 2724 2725 2727 2729 2730 2731 2733 2735 2736 2738 2740 2741 2743
2717 2715 2713 2712 2710 2708 2706 2705 2702 2701 2699 2696 2694 2692 2690 2688 2687 2685 2684 2682 2681 2680 2680 2679 2678 2678 2677 2677 2677 2677 2678 2678 2678 2679 2679 2680 2680 2680 2681 2681 2681 2681 2681 2682 2682 2682 2683 2684 2684 2686 2687 2688 2689 2690 2691 2692 2693 2695 2696 2698 2699 2701 2703 2706 2707 2709 2711 2713 2714 2716 2718 2720 2721 2723 2724 2726 2727 2729 2730 2732 2733 2735 2737 2738 2740 2742
2715 2713 2711 2709 2707 2706 2704 2701 2700 2697 2695 2693 2691 2689 2687 2685 2683 2682 2681 2680 2678 2677 2677 2676 2676 2676 2675 2675 2675 2676 2676 2676 2676 2676 2677 2677 2677 2678 2678 2679 2679 2679 2680 2680 2681 2681 2682 2683 2684 2685 2686 2688 2689 2690 2691 2691 2693 2694 2696 2698 2699 2701 2703 2705 2707 2709 2711 2713 2714 2716 2717 2719 2720 2722 2723 2725 2726 2727 2729 2731 2732 2734 2736 2738 2740 2742
2713 2711 2709 2707 2705 2703 2701 2699 2696 2694 2692 2690 2688 2686 2684 2682 2681 2679 2678 2677 2676 2675 2674 2674 2673 2673 2673 2674 2674 2674 2674 2674 2674 2675 2675 2675 2676 2676 2676 2676 2677 2678 2678 2679 2680 2680 2681 2682 2683 2685 2686 2687 2689 2690 2691 2691 2693 2694 2696 2698 2700 2701 2703 2705 2707 2709 2711 2712 2714 2715 2716 2718 2719 2721 2722 2723 2725 2726 2728 2730 2732 2734 2736 2737 2739 2741
2711 2709 2706 2704 2702 2700 2697 2695 2693 2691 2688 2687 2685 2683 2682 2680 2678 2676 2675 2674 2674 2673 2672 2672 2672 2672 2672 2672 2672 2672 2673 2673 2673 2673 2674 2674 2674 2674 2675 2675 2676 2677 2678 2679 2680 2681 2682 2683 2684 2685 2686 2687 2689 2690 2691 2691 2693 2695 2696 2698 2700 2701 2703 2705 2707 2708 2710 2711 2712 2714 2715 2716 2718 2719 2721 2722 2724 2726 2728 2730 2731 2733 2735 2737 2739 2740
2709 2706 2704 2701 2699 2696 2694 2691 2689 2687 2686 2684 2682 2681 2679 2678 2676 2675 2673 2672 2672 2671 2671 2671 2671 2671 2671 2671 2671 2671 2672 2672 2672 2672 2672 2673 2673 2673 2674 2675 2676 2677 2678 2680 2681 2682 2683 2683 2684 2685 2686 2687 2688 2689 2691 2692 2693 2695 2697 2699 2700 2702 2703 2705 2706 2708 2709 2710 2711 2713 2714 2716 2717 2719 2721 2722 2724 2726 2728 2730 2731 2733 2735 2736 2738 2739
2706 2704 2701 2698 2696 2693 2691 2689 2687 2685 2683 2681 2680 2678 2677 2676 2674 2673 2672 2671 2671 2670 2670 2671 2671 2671 2671 2671 2671 2671 2671 2671 2671 2671 2671 2672 2672 2673 2674 2675 2676 2678 2679 2680 2681 2682 2683 2684 2685 2686 2687 2688 2689 2690 2691 2692 2694 2695 2697 2699 2700 2701 2703 2704 2706 2707 2708 2709 2711 2712 2714 2715 2717 2719 2721 2722 2724 2726 2727 2729 2731 2732 2734 2735 2737 2738
2703 2701 2698 2696 2693 2691 2688 2686 2684 2683 2681 2679 2678 2676 2675 2674 2672 2671 2671 2670 2670 2670 2670 2670 2670 2671 2671 2671 2671 2671 2671 2671 2671 2671 2671 2672 2673 2673 2675 2676 2677 2678 2680 2681 2682 2683 2684 2685 2686 2686 2687 2688 2689 2690 2691 2692 2694 2695 2696 2698 2700 2701 2702 2703 2705 2706 2707 2709 2711 2712 2714 2716 2717 2719 2721 2722 2724 2725 2727 2728 2730 2731 2733 2734 2736 2737